FGYBKLPWX Weather Reports


time (UTC)temp
F
wind
direction
speed
knots
gust
knots
rain 1hr
in
rain 24hr
in
rain mn
in
humidity
%
barometer
mb
20260504130554 71 81 1.7 7.0 0.00 0.00 0.00 74 1017.6
20260504120103 65 75 0.0 2.6 0.00 0.00 0.00 89 1017.4
20260504110555 60 0 0.0 0.0 0.00 0.00 0.00 93 1017.0
20260504100557 61 0 0.0 1.7 0.00 0.00 0.00 92 1016.7
20260504100104 61 334 0.0 1.7 0.00 0.00 0.00 92 1016.7
20260504090117 61 0 0.0 1.7 0.00 0.00 0.00 89 1016.6
20260504081559 62 0 0.0 2.6 0.00 0.00 0.00 87 1016.6
20260504081053 63 0 0.9 2.6 0.00 0.00 0.00 88 1016.7
20260504080553 63 329 1.7 2.6 0.00 0.00 0.00 87 1016.9
20260504080112 63 321 0.0 2.6 0.00 0.00 0.00 88 1016.9
20260504050557 65 0 0.0 2.6 0.00 0.00 0.00 79 1017.7
20260504045600 65 36 0.0 2.6 0.00 0.00 0.00 78 1017.9
20260504045056 65 0 0.0 0.9 0.00 0.00 0.00 79 1017.8
20260504044619 66 0 0.0 0.0 0.00 0.00 0.00 79 1017.9
20260504044056 66 0 0.0 0.9 0.00 0.00 0.00 78 1018.1
20260504043556 66 0 0.0 0.9 0.00 0.00 0.00 77 1018.1
20260504043057 66 0 0.0 1.7 0.00 0.00 0.00 76 1018.2
20260504042556 66 0 0.0 1.7 0.00 0.00 0.00 75 1018.1
20260504042057 66 0 0.0 2.6 0.00 0.00 0.00 75 1018.1
20260504041556 66 0 0.0 2.6 0.00 0.00 0.00 74 1018.0
20260504041056 67 0 0.0 1.7 0.00 0.00 0.00 74 1018.0
20260504040556 67 315 0.0 2.6 0.00 0.00 0.00 74 1018.0
20260504040117 67 0 0.0 2.6 0.00 0.00 0.00 74 1018.0
20260504035559 67 0 0.0 3.5 0.00 0.00 0.00 73 1018.1
20260504035056 67 69 0.0 3.5 0.00 0.00 0.00 73 1018.1
20260504034607 67 360 0.0 5.2 0.00 0.00 0.00 73 1018.0
20260504034056 67 0 0.0 5.2 0.00 0.00 0.00 73 1018.0
20260504033558 67 84 0.9 5.2 0.00 0.00 0.00 72 1018.0
20260504033058 67 40 0.9 3.5 0.00 0.00 0.00 72 1017.9
20260504032559 67 56 0.9 3.5 0.00 0.00 0.00 72 1017.9
20260504032058 67 86 0.9 4.3 0.00 0.00 0.00 72 1018.0
20260504031556 67 0 0.9 4.3 0.00 0.00 0.00 72 1017.9
20260504031057 67 87 0.9 4.3 0.00 0.00 0.00 72 1017.9
20260504030553 67 104 0.9 7.0 0.00 0.00 0.00 72 1017.9
20260504030057 68 0 0.9 7.0 0.00 0.00 0.00 71 1017.9
20260504025559 68 93 2.6 7.0 0.00 0.00 0.00 71 1017.9
20260504025056 68 80 0.9 5.2 0.00 0.00 0.00 71 1017.8
20260504024555 68 26 1.7 5.2 0.00 0.00 0.00 71 1017.8
20260504024056 68 52 0.9 3.5 0.00 0.00 0.00 71 1017.8
20260504023555 68 0 1.7 5.2 0.00 0.00 0.00 71 1017.8
20260504023057 68 73 1.7 5.2 0.00 0.00 0.00 71 1017.9
20260504022554 68 57 0.9 3.5 0.00 0.00 0.00 71 1017.9
20260504022058 68 68 0.9 6.1 0.00 0.00 0.00 71 1017.8
20260504021557 68 78 0.9 6.1 0.00 0.00 0.00 70 1017.8
20260504021055 68 119 1.7 5.2 0.00 0.00 0.00 70 1017.7
20260504020555 68 63 0.9 5.2 0.00 0.00 0.00 70 1017.7
20260504020054 68 93 1.7 6.1 0.00 0.00 0.00 70 1017.7
20260504015555 69 55 0.9 7.0 0.00 0.00 0.00 69 1017.6
20260504015055 69 98 2.6 7.0 0.00 0.00 0.00 69 1017.3
20260504014557 69 29 0.9 7.0 0.00 0.00 0.00 69 1017.2
20260504014055 69 51 1.7 6.1 0.00 0.00 0.00 68 1017.3
20260504013553 69 103 2.6 6.1 0.00 0.00 0.00 68 1017.2
20260504013111 69 123 2.6 7.0 0.00 0.00 0.00 67 1017.2
20260504012555 70 109 1.7 7.0 0.00 0.00 0.00 67 1017.2
20260504012055 70 107 2.6 7.8 0.00 0.00 0.00 67 1017.1
20260504011556 70 142 1.7 7.8 0.00 0.00 0.00 66 1017.0
20260504011054 70 29 3.5 7.8 0.00 0.00 0.00 66 1016.9
20260504010555 70 46 2.6 7.8 0.00 0.00 0.00 65 1017.0
20260504010105 71 117 1.7 6.1 0.00 0.00 0.00 64 1016.8
20260504005556 71 45 3.5 7.0 0.00 0.00 0.00 63 1017.0
20260504005057 71 69 2.6 7.0 0.00 0.00 0.00 63 1016.9
20260504004606 71 0 2.6 7.0 0.00 0.00 0.00 62 1016.8
20260504004056 72 98 2.6 7.0 0.00 0.00 0.00 61 1016.7
20260504003555 72 139 1.7 7.0 0.00 0.00 0.00 60 1016.6
20260504003053 72 76 2.6 7.0 0.00 0.00 0.00 60 1016.6
20260504002555 72 64 1.7 6.1 0.00 0.00 0.00 59 1016.6
20260504002053 73 69 2.6 6.1 0.00 0.00 0.00 58 1016.6
20260504001554 73 113 1.7 6.1 0.00 0.00 0.00 58 1016.7
20260504001055 73 125 1.7 6.1 0.00 0.00 0.00 58 1016.7
20260504000555 73 114 1.7 6.1 0.00 0.00 0.00 57 1016.7
20260504000113 73 32 0.9 6.1 0.00 0.00 0.00 57 1016.7
20260503235557 73 119 0.9 4.3 0.00 0.00 0.00 57 1016.6
20260503235101 74 0 1.7 6.1 0.00 0.00 0.00 56 1016.6
20260503234557 74 135 1.7 6.1 0.00 0.00 0.00 56 1016.4
20260503234057 74 100 1.7 6.1 0.00 0.00 0.00 56 1016.4
20260503233557 74 92 0.9 7.8 0.00 0.00 0.00 56 1016.3
20260503233058 74 154 1.7 7.8 0.00 0.00 0.00 56 1016.2
20260503232556 74 77 2.6 7.8 0.00 0.00 0.00 56 1016.3
20260503232057 75 65 0.9 7.0 0.00 0.00 0.00 55 1016.4
20260503231555 75 71 2.6 7.0 0.00 0.00 0.00 55 1016.2
20260503231058 75 51 1.7 7.0 0.00 0.00 0.00 56 1016.2
20260503230557 75 161 2.6 7.8 0.00 0.00 0.00 55 1016.2
20260503230058 76 42 2.6 7.8 0.00 0.00 0.00 54 1016.1
20260503225557 76 90 2.6 10.4 0.00 0.00 0.00 55 1016.2
20260503225056 76 105 4.3 10.4 0.00 0.00 0.00 55 1016.2
20260503224556 76 115 2.6 9.6 0.00 0.00 0.00 54 1016.1
20260503224056 76 113 4.3 9.6 0.00 0.00 0.00 54 1016.2
20260503223557 76 143 3.5 9.6 0.00 0.00 0.00 55 1016.1
20260503223057 76 95 3.5 8.7 0.00 0.00 0.00 55 1016.2
20260503222557 76 124 2.6 7.0 0.00 0.00 0.00 55 1016.2
20260503222057 76 107 1.7 7.0 0.00 0.00 0.00 54 1016.2
20260503221558 77 83 2.6 7.0 0.00 0.00 0.00 54 1016.3
20260503221057 77 130 2.6 7.0 0.00 0.00 0.00 53 1016.2
20260503220558 77 78 1.7 7.8 0.00 0.00 0.00 52 1016.3
20260503220114 77 84 2.6 7.8 0.00 0.00 0.00 53 1016.2
20260503215557 78 111 3.5 7.8 0.00 0.00 0.00 53 1016.3
20260503215057 78 111 3.5 7.8 0.00 0.00 0.00 53 1016.1
20260503214558 78 134 1.7 10.4 0.00 0.00 0.00 53 1016.2
20260503214057 78 106 2.6 11.3 0.00 0.00 0.00 52 1016.1
20260503213555 78 114 6.1 11.3 0.00 0.00 0.00 52 1016.0
20260503213058 78 59 5.2 11.3 0.00 0.00 0.00 52 1016.0
20260503212556 78 104 3.5 9.6 0.00 0.00 0.00 53 1016.0
20260503212055 78 119 3.5 9.6 0.00 0.00 0.00 53 1016.0
20260503211555 78 49 4.3 8.7 0.00 0.00 0.00 52 1016.0
20260503211058 79 89 3.5 7.8 0.00 0.00 0.00 52 1015.9
20260503210557 78 147 2.6 7.8 0.00 0.00 0.00 53 1016.0
20260503210058 77 97 1.7 8.7 0.00 0.00 0.00 55 1016.1
20260503205558 77 99 2.6 8.7 0.00 0.00 0.00 55 1016.1
20260503205056 78 129 4.3 10.4 0.00 0.00 0.00 54 1016.1
20260503204605 79 167 2.6 10.4 0.00 0.00 0.00 51 1016.2
20260503204055 78 92 4.3 9.6 0.00 0.00 0.00 55 1016.3
20260503203553 78 122 4.3 9.6 0.00 0.00 0.00 54 1016.3
20260503203059 78 69 0.9 7.0 0.00 0.00 0.00 53 1016.3
20260503202555 78 44 1.7 8.7 0.00 0.00 0.00 53 1016.4
20260503202055 78 60 3.5 8.7 0.00 0.00 0.00 52 1016.5
20260503201559 79 84 2.6 7.0 0.00 0.00 0.00 52 1016.6
20260503201059 79 104 1.7 7.0 0.00 0.00 0.00 53 1016.5
20260503200556 78 65 2.6 10.4 0.00 0.00 0.00 53 1016.5
20260503195554 79 130 3.5 8.7 0.00 0.14 0.00 53 1016.7
20260503195055 78 134 0.9 6.1 0.00 0.14 0.00 56 1016.6
20260503194603 77 0 1.7 7.8 0.00 0.14 0.00 55 1016.8
20260503194056 77 75 1.7 9.6 0.00 0.14 0.00 55 1016.9
20260503193555 78 111 4.3 9.6 0.00 0.14 0.00 55 1016.8
20260503193058 78 113 5.2 8.7 0.00 0.14 0.00 55 1016.9
20260503192555 78 103 4.3 8.7 0.00 0.14 0.00 57 1017.0
20260503192055 79 103 2.6 8.7 0.00 0.14 0.00 53 1017.2
20260503191554 79 328 1.7 8.7 0.00 0.14 0.00 54 1017.2
20260503191055 79 336 2.6 7.0 0.00 0.14 0.00 54 1017.3
20260503190556 79 34 1.7 7.8 0.00 0.14 0.00 54 1017.4
20260503190054 78 0 1.7 7.8 0.00 0.14 0.00 51 1017.4
20260503185555 79 342 1.7 7.8 0.00 0.42 0.00 54 1017.6
20260503185059 78 306 0.9 7.0 0.00 0.42 0.00 56 1017.6
20260503184605 77 344 1.7 6.1 0.00 0.42 0.00 56 1017.7
20260503184056 78 333 1.7 6.1 0.00 0.42 0.00 55 1017.8
20260503183554 78 171 0.9 5.2 0.00 0.42 0.00 55 1017.7
20260503183057 78 322 1.7 5.2 0.00 0.42 0.00 54 1017.8
20260503182557 79 24 0.9 7.0 0.00 0.42 0.00 55 1017.8
20260503182056 78 167 0.9 7.0 0.00 0.42 0.00 57 1017.8
20260503181602 78 55 1.7 6.1 0.00 0.42 0.00 54 1017.9
20260503181056 77 90 2.6 7.0 0.00 0.42 0.00 56 1017.9
20260503180555 77 360 2.6 7.8 0.00 0.42 0.00 57 1017.9
20260503180116 77 89 1.7 7.8 0.00 0.42 0.00 58 1018.0
20260503175555 76 31 0.9 7.0 0.00 0.42 0.00 59 1018.0
20260503175056 76 76 1.7 7.0 0.00 0.42 0.00 58 1018.1
20260503174555 77 26 1.7 7.0 0.00 0.42 0.00 59 1018.2
20260503174059 77 301 1.7 8.7 0.00 0.42 0.00 60 1018.2
20260503173555 76 12 1.7 8.7 0.00 0.42 0.00 61 1018.3
20260503173108 76 352 4.3 8.7 0.00 0.42 0.00 62 1018.3
20260503172556 76 360 2.6 7.8 0.00 0.42 0.00 64 1018.3
20260503172055 75 346 1.7 6.1 0.00 0.42 0.00 63 1018.5
20260503171555 75 5 1.7 7.8 0.00 0.42 0.00 63 1018.5
20260503171056 75 154 1.7 9.6 0.00 0.42 0.00 61 1018.5
20260503170556 74 71 4.3 9.6 0.00 0.42 0.00 63 1018.7
20260503170106 74 325 1.7 7.8 0.00 0.42 0.00 64 1018.8
20260503160114 73 329 2.6 8.7 0.00 0.42 0.00 68 1019.2
20260503150555 71 333 0.9 9.6 0.00 0.42 0.00 73 1018.9
20260503150103 70 347 5.2 10.4 0.00 0.42 0.00 72 1018.9
20260503140108 66 184 3.5 9.6 0.00 0.42 0.00 79 1018.7